Location: Bouce
(46.2218°N, 2.9876°E)
Time: 08:45:07
(UTC+00:00)

Daily predictions for brighter satellites

Satellite Brightness Start Highest point End
(mag) Time Altitude Azimuth Time Altitude Azimuth Time Altitude Azimuth
Cosmos 2366 rocket 4.3 17:06:50 10° SSE 17:12:43 46° E 17:18:41 10° NNE
Okean O Rocket 3.5 17:10:27 10° SSW 17:14:34 37° W 17:18:44 10° NNW
ERBS 4.3 17:13:12 10° WNW 17:15:41 19° NNW 17:18:11 10° NNE
Starlink L 4.2 17:13:05 10° NW 17:16:03 29° NNE 17:19:01 10° ENE
Cosmos 1328 4.2 17:13:07 10° SSE 17:16:56 44° E 17:20:46 10° NNE
Starlink A 4.1 17:15:32 10° NW 17:18:32 29° NNE 17:21:30 10° ENE
USA 234 3.3 17:12:37 10° ESE 17:19:04 65° NNE 17:25:32 10° NW
Meteor 1-21 Rocket 4.4 17:14:31 10° S 17:20:11 88° W 17:26:01 10° N
SKYMED 2 4.4 17:16:34 10° NNE 17:20:25 30° E 17:24:14 10° SSE
Starlink R 4.1 17:18:00 10° NW 17:21:00 30° NNE 17:23:59 10° ENE
ATLAS 5 CENTAUR R/B 4.1 17:19:27 10° NNW 17:21:23 12° N 17:23:25 10° NNE
Cosmos 44 Rocket 4.1 17:18:37 10° S 17:22:50 31° ESE 17:27:01 10° NE
Starlink K 4.1 17:20:27 10° NW 17:23:27 30° NNE 17:26:28 10° ENE
Starlink M 4.1 17:22:53 10° NW 17:25:55 31° NNE 17:28:56 10° E
CSL-04 Rocket 4.4 17:22:38 10° SE 17:27:28 32° ENE 17:32:21 10° N
Okean-O 2.6 17:24:11 10° SSE 17:28:33 62° ENE 17:32:57 10° N
Cosmos 1455 2.2 17:26:38 10° N 17:30:26 90° W 17:34:11 10° S
Ariane Rocket 4.5 17:28:07 10° E 17:31:08 16° ENE 17:34:09 10° NNE
CORIOLIS 4.4 17:28:02 10° S 17:33:23 75° WSW 17:38:45 10° NNW
YAOGAN 1 3.3 17:29:37 10° SE 17:33:25 31° ENE 17:37:14 10° N
CZ-4 R/B 2.0 17:29:56 10° SE 17:33:44 37° ENE 17:37:37 10° N
Meteor 2-10 Rocket 3.5 17:29:51 10° NNW 17:35:05 87° W 17:40:08 10° S
Cosmos 1703 3.2 17:31:37 10° S 17:35:33 70° E 17:39:31 10° NNE
Cosmos 1727 Rocket 4.0 17:37:46 10° N 17:43:55 62° ENE 17:50:01 10° SSE
ATLAS CENTAUR R/B 1.9 17:40:10 10° NW 17:44:07 57° WSW 17:47:45 10° SSE
SL-8 Rocket 4.1 17:37:54 10° S 17:44:12 85° W 17:50:30 10° N
Starlink AS 3.5 17:43:25 10° NW 17:46:09 34° NNE 17:47:54 18° ENE
Starlink BA 3.5 17:43:37 10° NW 17:46:21 34° NNE 17:48:06 18° ENE
Starlink AU 3.5 17:43:51 10° NW 17:46:35 34° NNE 17:48:19 18° ENE
Starlink AT 3.5 17:44:05 10° NW 17:46:50 35° NNE 17:48:33 18° ENE
Starlink BB 3.5 17:44:18 10° NW 17:47:02 35° NNE 17:48:45 18° ENE
Starlink BC 3.5 17:44:33 10° NW 17:47:17 35° NNE 17:48:59 18° ENE
Starlink BK 3.5 17:44:44 10° NW 17:47:29 35° NNE 17:49:10 18° ENE
Starlink AY 3.5 17:44:59 10° NW 17:47:44 35° NNE 17:49:24 19° ENE
Starlink AW 3.5 17:45:13 10° NW 17:47:58 35° NNE 17:49:38 19° ENE
Starlink BJ 3.5 17:45:24 10° NW 17:48:09 35° NNE 17:49:49 19° ENE
Starlink AV 3.5 17:45:40 10° NW 17:48:25 35° NNE 17:50:04 19° ENE
Starlink BD 3.5 17:45:53 10° NW 17:48:38 35° NNE 17:50:16 19° ENE
Starlink BE 3.5 17:46:03 10° NW 17:48:49 36° NNE 17:50:30 19° ENE
Starlink BM 3.5 17:46:20 10° NW 17:49:05 35° NNE 17:50:42 19° ENE
Starlink AX 3.5 17:46:32 10° NW 17:49:17 36° NNE 17:50:54 19° ENE
Starlink BH 3.5 17:46:46 10° NW 17:49:30 36° NNE 17:51:07 19° ENE
Starlink AZ 3.5 17:47:00 10° NW 17:49:45 36° NNE 17:51:21 20° ENE
Starlink BG 3.5 17:47:13 10° NW 17:49:58 36° NNE 17:51:34 20° ENE
Starlink BF 3.5 17:47:27 10° NW 17:50:13 36° NNE 17:51:47 20° ENE
Starlink BL 3.5 17:47:37 10° NW 17:50:24 36° NNE 17:52:00 20° ENE
Starlink AH 3.4 17:47:52 10° NW 17:50:38 36° NNE 17:52:12 20° ENE
Starlink AC 3.4 17:48:05 10° NW 17:50:50 36° NNE 17:52:23 20° ENE
Starlink X 3.4 17:48:19 10° NW 17:51:05 36° NNE 17:52:38 20° ENE
Starlink AE 3.4 17:48:26 10° NW 17:51:14 37° NNE 17:52:48 20° ENE
USA 102 2.8 17:45:26 10° SSE 17:51:21 75° ENE 17:52:39 17° NNW
Starlink Z 3.4 17:48:46 10° NW 17:51:32 37° NNE 17:53:04 21° ENE
Starlink AK 3.4 17:49:01 10° NW 17:51:48 37° NNE 17:53:18 21° ENE
Starlink AQ 3.4 17:49:09 10° NW 17:51:56 37° NNE 17:53:26 21° ENE
Starlink AL 3.4 17:49:14 10° NW 17:52:00 37° NNE 17:53:30 21° ENE
Starlink AD 3.4 17:49:25 10° NW 17:52:11 37° NNE 17:53:41 21° ENE
Starlink Y 3.4 17:49:50 10° NW 17:52:37 37° NNE 17:54:05 21° ENE
Starlink AG 3.4 17:50:04 10° NW 17:52:50 37° NNE 17:54:18 21° ENE
Starlink W 3.4 17:50:18 10° NW 17:53:06 38° NNE 17:54:36 21° ENE
Starlink AJ 3.4 17:50:32 10° NW 17:53:19 37° NNE 17:54:45 22° ENE
Starlink AM 3.4 17:50:58 10° NW 17:53:45 38° NNE 17:55:11 22° ENE
Starlink AP 3.4 17:51:11 10° NW 17:53:58 38° NNE 17:55:23 22° ENE
Starlink AA 3.4 17:51:25 10° NW 17:54:12 38° NNE 17:55:37 22° ENE
Starlink AF 3.4 17:51:38 10° NW 17:54:26 38° NNE 17:55:49 22° ENE
Starlink AB 3.4 17:51:51 10° NW 17:54:38 38° NNE 17:56:02 22° ENE
YAOGAN 6 2.8 17:51:07 10° S 17:54:45 77° WSW 17:58:24 10° NNW
Starlink AN 3.4 17:52:04 10° NW 17:54:51 38° NNE 17:56:14 23° ENE
CZ-2D R/B 3.6 17:57:08 10° SE 18:00:43 40° ENE 18:04:23 10° N
Starlink T 3.4 17:58:11 10° NW 18:01:21 44° NNE 18:02:51 25° E
SL-16 R/B 3.5 17:57:03 10° NW 18:02:24 43° WSW 18:07:41 10° S
Starlink N 3.4 18:00:25 10° NW 18:03:35 45° NNE 18:05:00 27° E
Starlink AR 2.8 18:02:02 10° NW 18:04:41 47° NNE 18:05:32 33° ENE
Cosmos 1140 Rocket 4.1 18:00:01 10° N 18:04:49 35° ENE 18:09:34 10° SE
Cosmos 1356 Rocket 3.6 18:01:51 10° NNW 18:05:55 73° W 18:10:03 10° S
Starlink Q 3.4 18:02:52 10° NW 18:06:03 46° NNE 18:07:22 28° E
Cosmos 1842 Rocket 3.5 18:03:41 10° N 18:08:12 79° E 18:12:41 10° SSE
Starlink P 3.3 18:05:11 10° NW 18:08:22 48° NNE 18:09:36 30° E
ARGOS 4.4 18:08:17 19° ENE 18:08:28 19° ENE 18:12:08 10° NNE
COSMO-SKYMED 1 2.6 18:04:16 10° NNE 18:08:39 87° W 18:12:59 10° SSW
Shenzhou-11 Module 3.6 18:06:48 10° WSW 18:09:06 25° SSW 18:10:44 14° SSE
Cosmos 1869 3.8 18:05:33 10° N 18:09:13 35° ENE 18:12:51 10° SE
Cosmos 2227 4.3 18:04:10 10° S 18:09:45 56° ESE 18:15:05 11° NE
Starlink U 3.3 18:07:29 10° NW 18:10:41 49° NNE 18:11:49 32° E
Starlink B 3.2 18:09:49 10° NW 18:13:02 51° NNE 18:14:04 35° E
Cosmos 2297 Rocket 4.0 18:09:08 10° WSW 18:13:54 27° NW 18:18:41 10° N
Cosmos 1603 3.6 18:10:18 10° NNW 18:16:00 75° ENE 18:21:37 10° SSE
Cosmos 2263 Rocket 2.4 18:10:57 10° S 18:16:15 48° ESE 18:20:23 17° NE
Meteor 2-12 Rocket 4.3 18:10:49 10° S 18:16:51 80° E 18:22:56 10° N
Cosmos 1821 Rocket 4.0 18:12:42 10° S 18:18:55 59° E 18:25:04 10° NNE
USA 116 3.0 18:18:07 23° NNE 18:19:50 62° ESE 18:22:58 10° S
ISS -2.6 18:17:05 10° WNW 18:20:09 31° N 18:21:01 27° NNE
ATLAS 3B R/B 4.1 18:16:34 10° SE 18:19:50 16° ESE 18:19:50 16° ESE
Cosmos 1939 Rocket 2.7 18:18:39 10° SSE 18:22:35 73° ENE 18:26:38 10° N
USA 267 3.6 18:22:01 17° NE 18:27:09 61° NNW 18:33:34 10° WSW
Cosmos 2227 Rocket 4.2 18:23:16 10° W 18:27:49 24° NW 18:32:22 10° N
NOAA 11 4.2 18:22:22 10° SSE 18:27:52 88° WSW 18:33:23 10° NNW
Cosmos 2221 2.5 18:25:24 10° N 18:29:42 81° W 18:34:01 10° S
Starlink D 2.9 18:27:36 10° NW 18:30:53 67° NNE 18:31:14 61° ENE
NOSS 3-2 (C) 4.0 18:26:00 10° S 18:31:02 33° ESE 18:32:21 30° E
H-2A R/B 2.8 18:33:08 30° ENE 18:33:08 30° ENE 18:37:18 10° N
Starlink S 2.9 18:30:01 10° WNW 18:33:20 70° NNE 18:33:34 65° ENE
Cosmos 1076 Rocket 3.4 18:30:03 10° S 18:34:18 61° E 18:37:45 15° NNE
CENTAUR R/B 3.3 18:29:50 10° SSE 18:34:44 28° ESE 18:35:03 28° ESE
Starlink C 2.8 18:32:25 10° WNW 18:35:43 72° NNE 18:35:52 70° NE
Cosmos 1954 Rocket 4.3 18:30:45 10° N 18:35:52 44° ENE 18:37:30 34° ESE
Starlink E 2.8 18:34:52 10° WNW 18:38:11 75° NNE 18:38:14 75° NE
Starlink J 2.9 18:37:19 10° WNW 18:40:36 79° NNE 18:40:36 79° NNE
Starlink V 2.9 18:39:44 10° WNW 18:42:57 79° NNW 18:42:57 79° NNW
Cosmos 1943 3.2 18:37:39 10° NNW 18:43:21 88° WSW 18:49:01 10° SSE
Starlink H 3.0 18:42:12 10° WNW 18:45:19 77° NW 18:45:19 77° NW
Cosmos 2123 Rocket 3.9 18:40:18 10° N 18:46:34 63° ENE 18:52:45 10° SSE
Cosmos 1934 Rocket 3.9 18:40:45 10° S 18:46:40 59° E 18:52:37 10° NNE
NOSS 3-2 (A) 3.3 18:41:04 10° SSW 18:46:42 64° ESE 18:49:29 34° NE
Cosmos 2058 2.7 18:43:17 10° S 18:47:24 72° E 18:48:42 42° NNE
Cosmos 407 Rocket 3.6 18:42:34 10° NNW 18:47:52 79° WSW 18:53:03 10° SSE
Starlink F 3.1 18:44:39 10° WNW 18:47:41 72° NW 18:47:41 72° NW
SL-8 R/B 3.7 18:44:22 10° WNW 18:49:11 69° N 18:50:09 53° ENE
Starlink G 3.3 18:47:06 10° WNW 18:50:02 67° WNW 18:50:02 67° WNW
Cosmos 1190 Rocket 4.0 18:45:27 10° NNW 18:50:48 86° WSW 18:56:07 10° SSE
Cosmos 1371 Rocket 3.9 18:45:57 10° SSW 18:51:08 85° ESE 18:54:19 24° NNE
Starlink L 3.4 18:49:33 10° WNW 18:52:23 62° WNW 18:52:23 62° WNW
Starlink A 3.6 18:52:00 10° WNW 18:54:46 57° WNW 18:54:46 57° WNW
Cosmos 1437 4.0 18:53:13 10° SSW 18:55:02 32° SSW 18:55:02 32° SSW
Starlink R 3.7 18:54:28 10° WNW 18:57:08 53° WNW 18:57:08 53° WNW
Starlink K 3.9 18:56:55 10° WNW 18:59:30 49° WNW 18:59:30 49° WNW
USA 234 4.1 18:56:00 10° SSE 19:02:14 47° SW 19:08:30 10° WNW
Starlink M 4.1 18:59:23 10° WNW 19:01:51 45° WNW 19:01:51 45° WNW
Cosmos 676 Rocket 3.9 18:58:21 10° NNW 19:03:43 76° ENE 19:05:10 49° SE
Cosmos 44 Rocket 4.3 18:59:43 10° WSW 19:04:14 41° NW 19:06:24 26° N
ADEOS Rocket 3.3 18:57:36 10° NNE 19:04:34 86° ESE 19:12:08 10° SSW
ATLAS 5 CENTAUR R/B 4.0 19:05:10 10° NNW 19:07:51 15° NNE 19:07:51 15° NNE
CZ-4 R/B 4.0 19:05:41 10° SW 19:08:52 21° W 19:12:07 10° NW
Ariane Rocket 3.0 19:04:22 10° SSE 19:09:26 82° WSW 19:14:34 10° NNW
Cosmos 1535 Rocket 4.5 19:06:57 10° S 19:13:19 88° WNW 19:19:45 10° N
Cosmos 1624 Rocket 4.3 19:12:19 10° SSW 19:17:35 67° WNW 19:19:50 34° N
Cosmos 2084 4.4 19:21:12 10° NW 19:24:16 45° NW 19:24:16 45° NW
USA 238 DEB 3.8 19:22:01 10° SW 19:28:42 70° NW 19:31:14 41° NNE
USA 238 3.8 19:22:08 10° SW 19:28:48 71° NW 19:31:17 42° NNE
BREEZE-M DEB (TANK) 3.6 19:19:43 10° WNW 19:31:13 84° N 19:31:13 84° N
Cosmos 2056 Rocket 4.3 19:28:54 10° SW 19:34:02 51° WNW 19:36:02 34° N
CZ-2C R/B 3.9 19:47:51 49° NNW 19:47:51 49° NNW 19:51:58 10° NNW
ARGOS 3.9 19:49:47 46° NNW 19:49:47 46° NNW 19:53:34 10° NNW
Cosmos 2263 Rocket 3.7 19:55:29 10° WSW 20:00:23 31° NW 20:02:08 26° NNW
USA 267 4.2 20:09:21 36° N 20:09:30 36° N 20:15:21 10° WNW
ATLAS 3B R/B 3.7 20:03:33 10° SSW 20:07:10 35° SSW 20:07:10 35° SSW
H-2A R/B 3.6 20:13:45 30° WNW 20:13:45 30° WNW 20:16:56 10° NNW
NOSS 3-2 (C) 4.4 20:15:50 10° WSW 20:19:51 41° W 20:19:51 41° W
CENTAUR R/B 3.6 20:18:46 10° SW 20:22:18 38° WSW 20:22:18 38° WSW
